QPF
0.01 0.01 0.02 0.02 0.02 0.01 0.00 0.01 0.02 0.01 0.01 0.00 0.00 0.00 0.01 0.01 0.01 0.03 0.02 0.01 0.02 0.02 0.01 0.01 0.02 0.01 0.02 0.02 0.02 0.02 0.02 0.02 0.03 0.03 0.04 0.04 0.04 0.03 0.05 0.04 0.02 0.01 0.02
0.00 0.01 0.01 0.03 0.03 0.02 0.02 0.03 0.02 0.01 0.00 0.00 0.00 0.00 0.00 0.00 0.01 0.02 0.01 0.01 0.01 0.01 0.01 0.01 0.01 0.01 0.02 0.02 0.01 0.01 0.01 0.01 0.03 0.04 0.04 0.03 0.03 0.05 0.07 0.07 0.05 0.04 0.04
0.00 0.00 0.00 0.01 0.02 0.02 0.03 0.03 0.03 0.02 0.01 0.00 0.00 0.00 0.00 0.00 0.01 0.01 0.00 0.01 0.00 0.00 0.00 0.01 0.00 0.00 0.02 0.02 0.01 0.01 0.01 0.01 0.02 0.04 0.04 0.04 0.02 0.03 0.06 0.06 0.06 0.06 0.06
0.00 0.00 0.01 0.01 0.01 0.02 0.02 0.02 0.02 0.03 0.02 0.00 0.00 0.00 0.00 0.00 0.00 0.00 0.00 0.00 0.00 0.00 0.00 0.01 0.00 0.00 0.01 0.01 0.01 0.01 0.01 0.01 0.02 0.02 0.01 0.01 0.02 0.02 0.05 0.05 0.04 0.04 0.03
0.01 0.01 0.01 0.01 0.02 0.01 0.02 0.02 0.03 0.03 0.01 0.01 0.00 0.00 0.01 0.01 0.01 0.00 0.00 0.00 0.00 0.00 0.00 0.01 0.00 0.00 0.00 0.00 0.00 0.01 0.01 0.02 0.02 0.01 0.01 0.00 0.01 0.02 0.03 0.03 0.02 0.01 0.01
0.01 0.01 0.02 0.03 0.03 0.01 0.01 0.00 0.02 0.03 0.02 0.01 0.01 0.01 0.00 0.00 0.01 0.01 0.00 0.00 0.00 0.00 0.00 0.00 0.00 0.00 0.00 0.00 0.00 0.00 0.00 0.01 0.01 0.01 0.01 0.01 0.02 0.02 0.01 0.01 0.00 0.00 0.00
0.01 0.01 0.03 0.04 0.02 0.01 0.01 0.01 0.01 0.01 0.02 0.02 0.03 0.02 0.00 0.00 0.00 0.00 0.00 0.01 0.01 0.01 0.00 0.00 0.00 0.00 0.00 0.00 0.00 0.00 0.00 0.00 0.00 0.00 0.01 0.01 0.01 0.01 0.00 0.00 0.00 0.00 0.00
0.00 0.01 0.02 0.04 0.03 0.03 0.04 0.04 0.03 0.02 0.03 0.03 0.03 0.02 0.01 0.00 0.00 0.00 0.00 0.01 0.01 0.01 0.00 0.00 0.01 0.00 0.00 0.00 0.00 0.01 0.01 0.00 0.00 0.00 0.00 0.00 0.00 0.00 0.00 0.00 0.00 0.00 0.00
0.00 0.00 0.01 0.02 0.03 0.03 0.03 0.03 0.03 0.03 0.03 0.03 0.03 0.01 0.00 0.00 0.00 0.01 0.01 0.00 0.00 0.00 0.00 0.00 0.00 0.00 0.00 0.00 0.00 0.00 0.00 0.00 0.00 0.00 0.00 0.00 0.00 0.00 0.00 0.00 0.00 0.00 0.00
0.00 0.00 0.00 0.01 0.01 0.02 0.02 0.02 0.02 0.03 0.03 0.03 0.04 0.02 0.01 0.01 0.01 0.01 0.01 0.00 0.00 0.00 0.00 0.00 0.00 0.00 0.00 0.00 0.00 0.00 0.00 0.00 0.00 0.00 0.00 0.00 0.00 0.00 0.00 0.00 0.00 0.00 0.00
0.01 0.00 0.00 0.00 0.01 0.01 0.02 0.02 0.02 0.03 0.03 0.03 0.04 0.03 0.02 0.01 0.01 0.00 0.00 0.00 0.00 0.00 0.00 0.00 0.00 0.00 0.00 0.01 0.00 0.00 0.00 0.00 0.00 0.00 0.00 0.00 0.00 0.00 0.00 0.00 0.00 0.00 0.00
0.01 0.01 0.01 0.00 0.01 0.01 0.01 0.02 0.02 0.02 0.03 0.02 0.02 0.03 0.02 0.01 0.01 0.01 0.00 0.00 0.00 0.00 0.00 0.00 0.00 0.00 0.01 0.01 0.00 0.00 0.00 0.00 0.00 0.00 0.00 0.00 0.00 0.00 0.00 0.00 0.00 0.00 0.00
0.00 0.01 0.01 0.02 0.02 0.02 0.02 0.02 0.02 0.02 0.02 0.02 0.02 0.02 0.02 0.01 0.01 0.01 0.01 0.01 0.01 0.00 0.00 0.00 0.00 0.01 0.01 0.01 0.00 0.00 0.00 0.00 0.01 0.01 0.01 0.01 0.01 0.01 0.00 0.01 0.01 0.00 0.00
0.01 0.01 0.02 0.03 0.03 0.02 0.02 0.01 0.01 0.01 0.02 0.02 0.03 0.03 0.02 0.02 0.01 0.01 0.01 0.01 0.01 0.00 0.01 0.01 0.01 0.01 0.01 0.01 0.01 0.01 0.00 0.01 0.01 0.01 0.01 0.01 0.01 0.01 0.01 0.01 0.01 0.01 0.01
0.01 0.01 0.02 0.02 0.02 0.01 0.01 0.01 0.01 0.01 0.02 0.02 0.03 0.04 0.05 0.04 0.03 0.02 0.01 0.01 0.01 0.01 0.01 0.01 0.01 0.01 0.01 0.01 0.01 0.01 0.01 0.01 0.01 0.01 0.01 0.01 0.01 0.01 0.01 0.01 0.01 0.01 0.01
0.01 0.02 0.02 0.01 0.01 0.01 0.01 0.01 0.01 0.01 0.02 0.02 0.02 0.02 0.03 0.04 0.04 0.03 0.03 0.02 0.02 0.02 0.01 0.01 0.01 0.01 0.01 0.01 0.01 0.01 0.01 0.01 0.01 0.01 0.02 0.02 0.02 0.02 0.01 0.01 0.01 0.01 0.01
0.01 0.02 0.02 0.01 0.01 0.00 0.00 0.00 0.01 0.01 0.01 0.01 0.01 0.01 0.01 0.02 0.03 0.03 0.03 0.03 0.03 0.03 0.02 0.02 0.02 0.01 0.01 0.02 0.02 0.02 0.02 0.02 0.02 0.02 0.02 0.02 0.01 0.01 0.01 0.01 0.00 0.00 0.00
0.01 0.01 0.01 0.01 0.01 0.00 0.00 0.00 0.00 0.00 0.01 0.01 0.01 0.01 0.02 0.02 0.02 0.03 0.05 0.05 0.05 0.05 0.05 0.05 0.04 0.04 0.03 0.03 0.03 0.03 0.03 0.03 0.02 0.02 0.02 0.02 0.01 0.01 0.01 0.01 0.01 0.00 0.00
0.00 0.00 0.00 0.00 0.00 0.00 0.00 0.00 0.00 0.00 0.01 0.01 0.01 0.01 0.02 0.02 0.03 0.04 0.04 0.04 0.06 0.07 0.07 0.07 0.07 0.07 0.06 0.05 0.04 0.04 0.04 0.03 0.03 0.03 0.02 0.02 0.01 0.01 0.01 0.01 0.01 0.00 0.00
0.00 0.00 0.01 0.01 0.00 0.00 0.00 0.00 0.00 0.01 0.01 0.01 0.02 0.02 0.03 0.03 0.04 0.05 0.05 0.05 0.06 0.06 0.06 0.05 0.04 0.04 0.04 0.03 0.03 0.02 0.02 0.02 0.02 0.02 0.02 0.02 0.01 0.01 0.01 0.01 0.00 0.00 0.00
0.00 0.00 0.01 0.01 0.00 0.01 0.01 0.01 0.02 0.02 0.02 0.02 0.02 0.02 0.02 0.03 0.03 0.03 0.03 0.04 0.04 0.03 0.03 0.03 0.02 0.02 0.02 0.02 0.01 0.01 0.01 0.01 0.01 0.01 0.01 0.01 0.01 0.01 0.01 0.00 0.00 0.00 0.00
0.01 0.01 0.01 0.01 0.01 0.01 0.01 0.03 0.04 0.03 0.02 0.01 0.01 0.02 0.02 0.01 0.01 0.01 0.02 0.02 0.01 0.01 0.01 0.01 0.00 0.00 0.01 0.01 0.01 0.01 0.01 0.01 0.01 0.01 0.01 0.01 0.01 0.01 0.01 0.01 0.01 0.00 0.00
0.01 0.01 0.01 0.01 0.02 0.03 0.03 0.02 0.02 0.01 0.01 0.01 0.01 0.01 0.01 0.01 0.01 0.00 0.00 0.00 0.00 0.01 0.01 0.01 0.01 0.01 0.01 0.01 0.01 0.01 0.01 0.01 0.01 0.01 0.01 0.01 0.01 0.00 0.00 0.00 0.00 0.00 0.00
0.01 0.00 0.00 0.01 0.01 0.02 0.01 0.01 0.01 0.01 0.01 0.01 0.01 0.01 0.01 0.01 0.00 0.00 0.00 0.00 0.00 0.00 0.00 0.00 0.00 0.01 0.01 0.01 0.01 0.01 0.01 0.01 0.01 0.00 0.00 0.00 0.00 0.00 0.00 0.00 0.00 0.00 0.00
0.01 0.01 0.01 0.01 0.01 0.01 0.01 0.01 0.01 0.01 0.01 0.01 0.01 0.01 0.01 0.01 0.00 0.00 0.00 0.00 0.00 0.00 0.00 0.00 0.00 0.01 0.01 0.01 0.01 0.00 0.00 0.00 0.00 0.00 0.00 0.00 0.00 0.00 0.00 0.00 0.00 0.00 0.00
0.01 0.01 0.01 0.01 0.02 0.01 0.01 0.01 0.01 0.01 0.01 0.01 0.01 0.01 0.01 0.01 0.01 0.00 0.00 0.00 0.00 0.00 0.00 0.00 0.01 0.01 0.01 0.01 0.01 0.01 0.01 0.01 0.00 0.00 0.00 0.00 0.00 0.00 0.00 0.00 0.00 0.00 0.00
MSLP
1015.98 1016.22 1016.49 1016.77 1017.00 1017.17 1017.25 1017.27 1017.23 1017.17 1017.13 1017.12 1017.18 1017.29 1017.46 1017.66 1017.87 1018.06 1018.22 1018.35 1018.45 1018.54 1018.65 1018.81 1019.04 1019.35 1019.75 1020.23 1020.79 1021.40 1022.03 1022.66 1023.26 1023.83 1024.33 1024.75 1025.11 1025.39 1025.61 1025.77 1025.89 1025.98 1026.06
1016.04 1016.27 1016.51 1016.76 1016.96 1017.12 1017.20 1017.23 1017.22 1017.19 1017.18 1017.21 1017.30 1017.45 1017.65 1017.88 1018.12 1018.35 1018.55 1018.71 1018.84 1018.95 1019.06 1019.20 1019.39 1019.64 1019.97 1020.38 1020.87 1021.41 1022.00 1022.61 1023.21 1023.79 1024.32 1024.80 1025.20 1025.53 1025.79 1026.00 1026.15 1026.27 1026.37
1016.07 1016.29 1016.51 1016.73 1016.92 1017.06 1017.15 1017.20 1017.22 1017.23 1017.27 1017.34 1017.47 1017.65 1017.89 1018.15 1018.42 1018.68 1018.92 1019.12 1019.29 1019.44 1019.57 1019.72 1019.89 1020.11 1020.39 1020.73 1021.15 1021.62 1022.13 1022.68 1023.25 1023.80 1024.33 1024.81 1025.24 1025.60 1025.89 1026.13 1026.31 1026.45 1026.57
1016.03 1016.25 1016.48 1016.69 1016.87 1017.01 1017.12 1017.20 1017.26 1017.33 1017.42 1017.54 1017.71 1017.93 1018.18 1018.46 1018.76 1019.04 1019.31 1019.55 1019.77 1019.96 1020.13 1020.31 1020.49 1020.71 1020.96 1021.25 1021.59 1021.98 1022.41 1022.88 1023.37 1023.86 1024.35 1024.81 1025.23 1025.60 1025.91 1026.17 1026.38 1026.55 1026.69
1015.90 1016.16 1016.40 1016.62 1016.81 1016.98 1017.12 1017.25 1017.36 1017.49 1017.63 1017.81 1018.02 1018.26 1018.53 1018.82 1019.12 1019.42 1019.70 1019.97 1020.23 1020.46 1020.69 1020.90 1021.12 1021.35 1021.59 1021.85 1022.13 1022.45 1022.79 1023.17 1023.56 1023.97 1024.39 1024.80 1025.19 1025.55 1025.87 1026.15 1026.38 1026.58 1026.74
1015.69 1016.00 1016.28 1016.53 1016.75 1016.95 1017.14 1017.32 1017.50 1017.69 1017.90 1018.13 1018.37 1018.64 1018.92 1019.20 1019.49 1019.78 1020.06 1020.35 1020.62 1020.90 1021.17 1021.43 1021.69 1021.95 1022.20 1022.44 1022.69 1022.95 1023.21 1023.50 1023.80 1024.13 1024.47 1024.82 1025.17 1025.50 1025.82 1026.10 1026.36 1026.59 1026.78
1015.38 1015.76 1016.10 1016.40 1016.67 1016.93 1017.17 1017.41 1017.66 1017.92 1018.18 1018.46 1018.74 1019.02 1019.29 1019.56 1019.83 1020.09 1020.36 1020.64 1020.93 1021.23 1021.53 1021.85 1022.15 1022.44 1022.72 1022.97 1023.20 1023.42 1023.63 1023.85 1024.07 1024.32 1024.58 1024.87 1025.18 1025.49 1025.80 1026.09 1026.37 1026.62 1026.85
1015.01 1015.46 1015.87 1016.24 1016.57 1016.88 1017.18 1017.49 1017.80 1018.11 1018.43 1018.75 1019.05 1019.34 1019.61 1019.86 1020.10 1020.33 1020.58 1020.84 1021.13 1021.44 1021.77 1022.12 1022.47 1022.80 1023.11 1023.38 1023.62 1023.82 1024.01 1024.18 1024.36 1024.55 1024.76 1025.01 1025.28 1025.56 1025.86 1026.17 1026.46 1026.73 1026.98
1014.57 1015.12 1015.60 1016.03 1016.42 1016.79 1017.15 1017.50 1017.87 1018.23 1018.60 1018.94 1019.27 1019.57 1019.83 1020.06 1020.28 1020.49 1020.71 1020.96 1021.24 1021.55 1021.90 1022.28 1022.65 1023.02 1023.37 1023.67 1023.93 1024.15 1024.33 1024.49 1024.65 1024.82 1025.00 1025.22 1025.47 1025.74 1026.03 1026.33 1026.63 1026.91 1027.17
1014.10 1014.72 1015.27 1015.76 1016.21 1016.63 1017.03 1017.43 1017.84 1018.24 1018.63 1019.01 1019.35 1019.65 1019.92 1020.15 1020.36 1020.56 1020.77 1021.01 1021.29 1021.61 1021.97 1022.36 1022.76 1023.15 1023.53 1023.86 1024.15 1024.39 1024.59 1024.77 1024.94 1025.11 1025.29 1025.50 1025.74 1026.01 1026.29 1026.58 1026.87 1027.15 1027.41
1013.59 1014.27 1014.88 1015.42 1015.92 1016.38 1016.82 1017.25 1017.68 1018.10 1018.52 1018.91 1019.27 1019.60 1019.88 1020.13 1020.35 1020.56 1020.79 1021.03 1021.32 1021.65 1022.01 1022.41 1022.82 1023.23 1023.62 1023.97 1024.29 1024.56 1024.79 1025.00 1025.19 1025.38 1025.59 1025.81 1026.05 1026.31 1026.58 1026.86 1027.13 1027.39 1027.63
1013.03 1013.75 1014.41 1014.99 1015.53 1016.02 1016.49 1016.94 1017.39 1017.83 1018.26 1018.67 1019.05 1019.40 1019.71 1020.00 1020.25 1020.51 1020.76 1021.04 1021.34 1021.69 1022.06 1022.46 1022.87 1023.28 1023.67 1024.03 1024.36 1024.65 1024.92 1025.16 1025.38 1025.61 1025.83 1026.07 1026.33 1026.58 1026.85 1027.10 1027.35 1027.58 1027.79
1012.41 1013.15 1013.84 1014.46 1015.02 1015.55 1016.04 1016.51 1016.97 1017.43 1017.87 1018.29 1018.70 1019.08 1019.44 1019.77 1020.08 1020.39 1020.70 1021.02 1021.37 1021.73 1022.12 1022.51 1022.91 1023.31 1023.68 1024.04 1024.36 1024.66 1024.94 1025.21 1025.46 1025.72 1025.97 1026.24 1026.50 1026.76 1027.01 1027.25 1027.47 1027.67 1027.84
1011.71 1012.46 1013.16 1013.81 1014.41 1014.96 1015.48 1015.98 1016.45 1016.92 1017.37 1017.81 1018.25 1018.66 1019.07 1019.46 1019.84 1020.21 1020.59 1020.97 1021.36 1021.75 1022.14 1022.54 1022.92 1023.29 1023.64 1023.97 1024.27 1024.57 1024.85 1025.12 1025.40 1025.68 1025.96 1026.24 1026.51 1026.78 1027.02 1027.24 1027.44 1027.61 1027.76
1010.92 1011.67 1012.39 1013.06 1013.70 1014.29 1014.84 1015.36 1015.85 1016.33 1016.80 1017.26 1017.72 1018.17 1018.61 1019.06 1019.50 1019.95 1020.39 1020.83 1021.26 1021.68 1022.09 1022.48 1022.84 1023.17 1023.49 1023.78 1024.06 1024.33 1024.60 1024.88 1025.16 1025.46 1025.76 1026.06 1026.35 1026.62 1026.86 1027.08 1027.26 1027.42 1027.56
1010.08 1010.81 1011.54 1012.25 1012.92 1013.54 1014.13 1014.69 1015.21 1015.71 1016.19 1016.67 1017.14 1017.61 1018.09 1018.57 1019.07 1019.56 1020.06 1020.54 1021.02 1021.46 1021.88 1022.26 1022.60 1022.91 1023.19 1023.45 1023.69 1023.94 1024.19 1024.46 1024.75 1025.06 1025.38 1025.69 1026.00 1026.28 1026.54 1026.77 1026.96 1027.12 1027.27
1009.22 1009.94 1010.68 1011.41 1012.11 1012.78 1013.41 1014.00 1014.56 1015.08 1015.57 1016.06 1016.53 1017.01 1017.50 1018.01 1018.52 1019.05 1019.57 1020.09 1020.58 1021.05 1021.47 1021.84 1022.17 1022.46 1022.71 1022.94 1023.16 1023.38 1023.62 1023.89 1024.19 1024.50 1024.84 1025.18 1025.51 1025.82 1026.10 1026.35 1026.56 1026.75 1026.93
1008.41 1009.12 1009.85 1010.60 1011.33 1012.04 1012.71 1013.34 1013.92 1014.46 1014.96 1015.45 1015.91 1016.39 1016.87 1017.36 1017.87 1018.40 1018.93 1019.45 1019.95 1020.41 1020.83 1021.20 1021.52 1021.80 1022.03 1022.25 1022.45 1022.67 1022.91 1023.19 1023.49 1023.83 1024.18 1024.55 1024.91 1025.26 1025.57 1025.86 1026.12 1026.35 1026.56
1007.73 1008.41 1009.13 1009.88 1010.63 1011.36 1012.06 1012.71 1013.31 1013.86 1014.37 1014.84 1015.29 1015.74 1016.19 1016.65 1017.14 1017.63 1018.13 1018.64 1019.12 1019.57 1019.98 1020.35 1020.66 1020.93 1021.17 1021.38 1021.60 1021.83 1022.08 1022.37 1022.69 1023.05 1023.44 1023.84 1024.25 1024.64 1025.00 1025.34 1025.65 1025.93 1026.20
1007.23 1007.86 1008.56 1009.29 1010.03 1010.77 1011.47 1012.14 1012.74 1013.30 1013.80 1014.25 1014.68 1015.09 1015.49 1015.91 1016.33 1016.78 1017.23 1017.69 1018.14 1018.57 1018.96 1019.31 1019.62 1019.90 1020.15 1020.38 1020.61 1020.86 1021.14 1021.45 1021.81 1022.21 1022.63 1023.08 1023.53 1023.97 1024.40 1024.80 1025.17 1025.51 1025.83
1006.92 1007.50 1008.14 1008.83 1009.54 1010.25 1010.95 1011.60 1012.20 1012.75 1013.23 1013.67 1014.06 1014.42 1014.78 1015.13 1015.50 1015.88 1016.27 1016.67 1017.06 1017.45 1017.81 1018.15 1018.46 1018.74 1019.00 1019.26 1019.52 1019.80 1020.11 1020.47 1020.86 1021.30 1021.77 1022.26 1022.77 1023.27 1023.76 1024.23 1024.67 1025.09 1025.47
1006.79 1007.29 1007.86 1008.48 1009.13 1009.80 1010.45 1011.08 1011.66 1012.18 1012.65 1013.06 1013.42 1013.75 1014.05 1014.35 1014.65 1014.95 1015.27 1015.61 1015.94 1016.28 1016.61 1016.92 1017.22 1017.51 1017.79 1018.07 1018.36 1018.68 1019.03 1019.42 1019.86 1020.34 1020.86 1021.41 1021.97 1022.54 1023.10 1023.65 1024.17 1024.65 1025.10
1006.79 1007.20 1007.67 1008.19 1008.76 1009.36 1009.95 1010.53 1011.08 1011.57 1012.02 1012.40 1012.74 1013.03 1013.29 1013.54 1013.78 1014.02 1014.28 1014.54 1014.82 1015.10 1015.39 1015.68 1015.97 1016.25 1016.55 1016.85 1017.18 1017.53 1017.93 1018.36 1018.84 1019.37 1019.94 1020.55 1021.17 1021.81 1022.45 1023.07 1023.66 1024.23 1024.75
1006.84 1007.14 1007.50 1007.91 1008.38 1008.89 1009.41 1009.92 1010.42 1010.89 1011.30 1011.67 1011.98 1012.25 1012.49 1012.70 1012.89 1013.09 1013.29 1013.50 1013.72 1013.96 1014.21 1014.47 1014.75 1015.04 1015.34 1015.67 1016.03 1016.42 1016.86 1017.34 1017.87 1018.45 1019.07 1019.73 1020.42 1021.13 1021.83 1022.53 1023.21 1023.85 1024.44
1006.87 1007.06 1007.30 1007.60 1007.95 1008.36 1008.79 1009.23 1009.68 1010.10 1010.49 1010.83 1011.13 1011.39 1011.61 1011.81 1011.98 1012.15 1012.31 1012.48 1012.67 1012.88 1013.10 1013.35 1013.62 1013.91 1014.24 1014.60 1014.99 1015.43 1015.91 1016.44 1017.02 1017.65 1018.33 1019.05 1019.80 1020.56 1021.34 1022.11 1022.85 1023.56 1024.22
1006.85 1006.92 1007.04 1007.23 1007.47 1007.77 1008.10 1008.47 1008.85 1009.22 1009.58 1009.91 1010.20 1010.46 1010.68 1010.87 1011.04 1011.20 1011.36 1011.52 1011.69 1011.89 1012.10 1012.35 1012.64 1012.96 1013.31 1013.71 1014.15 1014.64 1015.18 1015.76 1016.40 1017.08 1017.81 1018.58 1019.38 1020.20 1021.03 1021.85 1022.65 1023.41 1024.11
Thickness
5721 5721 5720 5719 5718 5717 5716 5716 5716 5716 5716 5715 5714 5713 5711 5710 5709 5707 5706 5705 5704 5702 5701 5699 5697 5696 5694 5693 5691 5690 5687 5684 5676 5675 5676 5676 5675 5674 5673 5673 5672 5672 5672
5721 5719 5718 5717 5716 5715 5714 5714 5715 5715 5715 5715 5714 5712 5711 5709 5708 5705 5704 5703 5702 5700 5699 5697 5695 5694 5692 5690 5688 5686 5684 5683 5678 5672 5671 5672 5672 5672 5671 5670 5669 5669 5668
5719 5718 5716 5715 5714 5713 5713 5713 5713 5713 5713 5713 5712 5710 5708 5707 5706 5705 5703 5702 5700 5699 5698 5695 5693 5692 5689 5687 5685 5683 5682 5681 5678 5673 5669 5669 5668 5668 5667 5666 5666 5665 5665
5718 5716 5714 5714 5713 5712 5712 5712 5711 5711 5710 5710 5710 5708 5707 5706 5705 5703 5702 5700 5698 5697 5695 5693 5692 5689 5687 5685 5683 5681 5680 5677 5674 5670 5667 5665 5664 5664 5662 5660 5659 5659 5660
5716 5714 5713 5713 5713 5712 5710 5710 5709 5709 5708 5707 5706 5706 5705 5703 5702 5700 5699 5698 5696 5694 5692 5691 5689 5687 5685 5683 5681 5678 5676 5673 5670 5666 5663 5661 5659 5658 5656 5656 5654 5654 5655
5715 5712 5712 5712 5710 5709 5708 5707 5707 5706 5705 5704 5703 5702 5700 5699 5698 5697 5696 5695 5693 5691 5689 5688 5686 5684 5682 5680 5678 5675 5673 5669 5666 5663 5660 5657 5656 5656 5655 5654 5651 5648 5646
5714 5712 5710 5710 5707 5707 5706 5704 5703 5702 5701 5699 5698 5697 5695 5694 5694 5693 5693 5691 5690 5688 5687 5685 5684 5681 5679 5676 5673 5671 5669 5667 5665 5662 5657 5656 5655 5654 5652 5649 5647 5645 5642
5714 5711 5710 5708 5706 5704 5703 5701 5700 5699 5697 5695 5694 5693 5692 5691 5690 5689 5689 5687 5685 5685 5683 5682 5679 5677 5675 5672 5670 5666 5664 5663 5662 5660 5657 5655 5654 5653 5650 5647 5645 5643 5641
5713 5711 5709 5707 5704 5702 5699 5698 5698 5696 5694 5693 5691 5690 5688 5687 5687 5686 5684 5682 5680 5679 5679 5678 5676 5673 5672 5670 5666 5662 5660 5658 5658 5657 5655 5653 5651 5649 5647 5644 5640 5636 5633
5714 5712 5711 5708 5704 5701 5699 5697 5696 5695 5692 5691 5689 5687 5686 5684 5683 5682 5680 5678 5676 5674 5673 5673 5671 5669 5667 5665 5661 5658 5654 5654 5653 5652 5650 5648 5646 5644 5642 5639 5635 5630 5627
5715 5713 5710 5708 5705 5702 5699 5696 5694 5692 5690 5688 5686 5684 5683 5682 5680 5679 5677 5675 5673 5671 5669 5667 5666 5665 5663 5661 5658 5655 5652 5650 5649 5647 5644 5643 5641 5638 5636 5634 5631 5627 5622
5714 5711 5708 5706 5704 5701 5697 5694 5692 5689 5686 5684 5682 5680 5680 5679 5678 5676 5674 5672 5671 5668 5666 5664 5662 5660 5658 5656 5653 5651 5649 5646 5643 5640 5637 5635 5633 5631 5629 5627 5625 5622 5619
5710 5707 5704 5702 5700 5698 5695 5691 5688 5685 5683 5681 5679 5676 5675 5675 5674 5673 5671 5669 5667 5664 5662 5660 5657 5655 5652 5649 5647 5645 5642 5639 5635 5632 5630 5628 5626 5625 5622 5620 5617 5614 5611
5705 5702 5700 5697 5694 5693 5691 5688 5685 5682 5680 5678 5676 5673 5672 5670 5669 5668 5666 5664 5661 5658 5655 5653 5650 5648 5645 5643 5641 5638 5635 5632 5629 5626 5624 5622 5620 5617 5614 5611 5607 5605 5601
5701 5698 5695 5692 5689 5686 5684 5682 5681 5680 5679 5676 5674 5672 5669 5666 5666 5666 5663 5660 5657 5654 5650 5646 5642 5639 5636 5635 5633 5630 5628 5625 5622 5620 5617 5614 5611 5608 5605 5602 5598 5594 5590
5696 5693 5690 5688 5685 5682 5679 5675 5674 5674 5674 5673 5672 5670 5667 5666 5664 5662 5660 5658 5654 5650 5644 5639 5636 5633 5631 5628 5625 5623 5621 5618 5616 5613 5610 5606 5603 5599 5596 5592 5588 5584 5580
5691 5688 5685 5683 5681 5679 5676 5672 5667 5665 5665 5665 5665 5664 5662 5661 5659 5657 5654 5651 5648 5644 5638 5634 5631 5629 5626 5623 5620 5617 5614 5612 5609 5606 5602 5599 5595 5591 5587 5583 5579 5574 5570
5686 5684 5682 5679 5677 5676 5673 5670 5666 5662 5658 5656 5656 5656 5655 5653 5651 5649 5646 5642 5637 5634 5632 5629 5626 5623 5621 5617 5614 5611 5608 5605 5601 5598 5594 5590 5587 5583 5579 5574 5570 5565 5561
5680 5678 5677 5675 5673 5671 5668 5665 5662 5659 5656 5652 5650 5648 5648 5645 5643 5640 5638 5635 5631 5627 5624 5622 5620 5617 5615 5612 5608 5605 5601 5597 5594 5590 5586 5582 5578 5574 5570 5566 5561 5557 5552
5673 5672 5671 5669 5667 5665 5662 5659 5656 5654 5651 5648 5646 5643 5640 5637 5634 5631 5629 5627 5625 5622 5619 5616 5613 5611 5608 5605 5601 5598 5594 5590 5586 5582 5578 5574 5570 5567 5562 5558 5553 5548 5543
5665 5665 5664 5662 5660 5659 5656 5653 5650 5648 5646 5643 5641 5639 5636 5633 5630 5627 5623 5621 5618 5616 5613 5610 5607 5604 5601 5598 5594 5590 5586 5582 5578 5574 5570 5566 5562 5558 5554 5549 5544 5539 5534
5658 5657 5656 5654 5653 5652 5650 5647 5644 5642 5640 5637 5635 5633 5630 5627 5624 5621 5618 5616 5613 5611 5608 5605 5601 5598 5595 5591 5587 5582 5578 5574 5570 5566 5562 5558 5553 5549 5545 5540 5535 5530 5525
5650 5649 5647 5646 5645 5644 5641 5640 5638 5635 5633 5631 5628 5626 5622 5620 5617 5615 5612 5610 5607 5604 5601 5598 5595 5591 5587 5583 5579 5574 5570 5566 5562 5558 5553 5549 5544 5540 5535 5530 5525 5520 5514
5643 5642 5640 5638 5637 5636 5634 5632 5630 5628 5626 5624 5621 5619 5616 5613 5611 5608 5606 5603 5600 5597 5594 5590 5587 5583 5579 5575 5570 5566 5562 5557 5553 5549 5544 5540 5535 5531 5525 5520 5515 5509 5503
5636 5634 5632 5631 5630 5628 5626 5624 5622 5620 5618 5616 5614 5611 5608 5606 5602 5600 5597 5594 5592 5588 5585 5582 5578 5574 5570 5566 5562 5557 5553 5549 5544 5539 5535 5530 5525 5520 5515 5509 5504 5498 5492
5629 5627 5625 5623 5622 5620 5618 5615 5613 5612 5610 5608 5605 5602 5600 5597 5594 5591 5588 5585 5582 5579 5576 5573 5569 5565 5561 5557 5552 5548 5544 5539 5534 5529 5524 5519 5514 5509 5503 5498 5493 5487 5481